Location: Henham
(51.9333°N, 0.2500°E)
Time: 19:19:54
(UTC+00:00)

MOS 1 - Pass Details

Date: 23 October 2019
Orbit: 878 x 891 km, 99.2° (Epoch: 10 November)

Event Time Altitude Azimuth Distance (km) Brightness Sun altitude
Exits shadow 19:17:40 22° 167° (SSE) 1,833 5.7 -23.5°
Maximum altitude 19:21:28 82° 254° (WSW) 896 4.3 -24.1°
Drops below altitude 10° 19:27:09 10° 342° (NNW) 2,547 7.0 -24.9°
Sets 19:29:33 0° 344° (NNW) 3,490 7.8 -25.3°
